Location: Clinton NY
(43.0598°N, 75.3602°W)
Time: 14:49:15
(UTC-05:00)

Daily predictions for brighter satellites

Satellite Brightness Start Highest point End
(mag) Time Altitude Azimuth Time Altitude Azimuth Time Altitude Azimuth
Cosmos 1763 Rocket 3.9 17:22:41 10° SSW 17:27:53 70° WNW 17:33:03 10° NNE
Cosmos 1674 3.1 17:26:05 10° SSW 17:29:53 67° W 17:33:45 10° N
SKYMED 2 4.5 17:27:07 10° NE 17:30:54 29° E 17:34:40 10° SSE
Cosmos 1844 3.9 17:25:45 10° NNW 17:31:33 85° WSW 17:37:21 10° SSE
Cosmos 372 Rocket 4.2 17:26:55 10° N 17:31:49 44° ENE 17:36:39 10° SE
Tsikada Rocket 4.4 17:25:43 10° SSW 17:32:06 73° W 17:38:32 10° N
Cosmos 1908 4.2 17:29:30 10° NNW 17:33:18 52° W 17:37:06 10° S
Cosmos 1726 2.4 17:30:34 10° N 17:34:13 45° ENE 17:37:51 10° SSE
Cosmos 1500 Rocket 3.5 17:34:15 10° S 17:38:33 71° E 17:42:55 10° NNE
Cosmos 540 Rocket 3.6 17:34:46 10° S 17:39:47 54° ESE 17:44:49 10° NNE
USA 215 3.6 17:36:43 10° E 17:42:55 47° NNE 17:49:07 10° NW
Cosmos 2237 Rocket 2.3 17:38:20 10° S 17:43:52 61° ESE 17:49:25 10° NNE
Cosmos 44 Rocket 3.5 17:39:07 10° SW 17:44:15 79° NW 17:49:19 10° NNE
Cosmos 2084 3.4 17:40:38 10° SW 17:44:31 71° NW 17:48:19 10° NNE
NOSS 0 Rocket 4.0 17:39:38 10° SSW 17:45:50 75° ESE 17:52:03 10° NNE
FREGAT/IRIS 4.5 17:46:05 10° E 17:47:38 13° ENE 17:49:11 10° NE
BREEZE-M DEB (TANK) 4.1 17:39:59 10° NW 17:48:30 49° SW 17:51:43 10° SSE
COSMOS 2428 3.8 17:43:18 10° SW 17:48:44 44° WNW 17:54:13 10° NNE
Cosmos 1300 2.6 17:45:53 10° N 17:49:44 70° E 17:53:32 10° SSE
SL-16 R/B 3.0 17:46:06 10° SSE 17:50:56 30° ESE 17:55:46 10° NE
Cosmos 1340 Rocket 3.4 17:47:37 10° SSE 17:51:10 33° E 17:54:43 10° NNE
Cosmos 1634 Rocket 4.0 17:45:01 10° N 17:51:14 89° E 17:57:24 10° S
SL-14 R/B 3.3 17:48:30 10° S 17:52:22 62° E 17:56:20 10° NNE
Abrixas 2.7 17:50:51 10° SW 17:53:43 54° SSE 17:55:48 17° ENE
Cosmos 1461 4.0 17:50:59 10° S 17:54:30 26° ESE 17:57:06 15° ENE
Cosmos 2058 3.1 17:51:07 10° SSE 17:55:04 48° E 17:59:02 10° NNE
Cosmos 1484 Rocket 2.7 17:51:51 10° SSE 17:55:46 76° ENE 17:59:47 10° N
Cosmos 1633 Rocket 4.4 17:53:35 10° SE 17:56:37 18° E 17:58:57 13° NE
Cosmos 2297 3.9 17:55:40 10° NNW 18:01:13 49° ENE 18:06:44 10° SE
Cosmos 304 Rocket 4.2 17:57:22 10° S 18:01:52 41° ESE 18:06:23 10° NE
Lacrosse 5 3.8 18:04:10 10° NW 18:07:32 17° N 18:10:53 10° NNE
Meteor 1-28 Rocket 3.2 18:10:53 10° NNE 18:14:34 58° E 18:18:14 10° S
CZ-4C R/B 4.5 18:11:46 10° NNW 18:14:49 13° NNE 18:17:47 10° NE
Cosmos 1900 4.4 18:10:46 10° NNW 18:15:39 56° NE 18:20:34 10° SE
Cosmos 1125 Rocket 4.4 18:10:48 10° NNW 18:15:51 53° WSW 18:20:53 10° S
OTV 4 3.4 18:14:53 10° SW 18:16:01 12° SSW 18:17:10 10° S
Cosmos 1356 Rocket 3.9 18:13:08 10° SSE 18:16:47 35° E 18:19:10 18° NE
Meteor 2-10 4.0 18:11:50 10° N 18:16:58 89° E 18:22:12 10° S
CENTAUR R/B 3.9 18:13:10 10° WSW 18:18:52 34° NW 18:25:16 10° NNE
COSMO-SKYMED 1 2.6 18:14:42 10° NNE 18:19:05 85° WNW 18:23:25 10° SSW
Cosmos 1707 Rocket 3.7 18:15:01 10° N 18:19:13 48° ENE 18:23:24 10° SSE
DMSP B5D1-3 4.4 18:15:21 10° NNE 18:20:27 70° ESE 18:25:31 10° S
USA 229 DEB 4.5 18:15:49 10° S 18:21:36 30° ESE 18:24:43 21° ENE
USA 229 4.5 18:15:57 10° S 18:21:42 30° ESE 18:24:46 22° ENE
Spot 2 Rocket 4.2 18:20:03 10° SE 18:24:26 31° ENE 18:28:49 10° N
Resurs 01 Rocket 2.4 18:26:17 24° ESE 18:27:51 30° ENE 18:31:43 10° N
FENGYUN 3A 4.1 18:23:39 10° SE 18:28:29 36° ENE 18:33:22 10° N
Lacrosse 5 rocket 2.0 18:26:03 10° NW 18:29:45 51° SW 18:33:38 10° SSE
Meteor 1-11 4.4 18:24:54 10° SSW 18:30:35 75° W 18:36:23 10° N
Cosmos 1666 Rocket 3.7 18:26:26 10° SSE 18:30:37 50° E 18:34:14 14° NNE
Cosmos 1980 4.4 18:26:38 10° SW 18:32:10 53° WNW 18:37:44 10° NNE
Timation 1 Rocket 4.4 18:26:28 10° NNW 18:32:32 88° WSW 18:38:33 10° SSE
METEOR-M 4.0 18:28:20 10° SSE 18:33:40 74° ENE 18:39:01 10° N
Cosmos 1184 Rocket 3.6 18:30:52 10° SSE 18:33:17 33° SE 18:33:17 33° SE
Cosmos 1538 Rocket 4.0 18:31:41 10° S 18:36:53 61° ESE 18:40:44 19° NNE
Cosmos 2151 4.3 18:33:13 10° SSW 18:37:10 39° WNW 18:41:08 10° N
Cosmos 2279 Rocket 4.4 18:33:45 10° NNW 18:39:54 66° W 18:46:04 10° S
Iridium 4 Rocket 3.5 18:35:46 10° SSE 18:39:48 37° E 18:39:48 37° E
ATLAS 5 CENTAUR R/B 4.1 18:38:33 10° N 18:41:36 14° NNE 18:41:50 14° NNE
FengYun 1-2 T 4.2 18:41:10 10° SSE 18:46:35 56° ENE 18:51:58 10° N
ALOS 2.4 18:42:23 10° SSE 18:46:53 50° ENE 18:51:25 10° N
NOAA 12 4.2 18:44:35 10° S 18:49:48 75° WSW 18:55:06 10° NNW
Cosmos 2333 Rocket 3.7 18:46:33 10° WSW 18:51:37 33° NW 18:56:41 10° N
Cosmos 2219 Rocket 4.1 18:48:20 10° WSW 18:53:00 26° NW 18:57:41 10° N
Cosmos 1626 2.3 18:51:02 10° SSW 18:54:45 72° W 18:56:51 25° N
Cosmos 1603 4.2 18:50:17 10° S 18:55:01 36° ESE 18:55:01 36° ESE
SJ-6B 3.2 18:54:46 10° S 18:58:50 67° W 19:02:58 10° NNW
Cosmos 2242 Rocket 3.4 18:55:53 10° N 19:00:18 70° E 19:04:44 10° SSE
Cosmos 1943 Rocket 4.3 18:57:29 10° NNE 18:57:49 11° NNE 18:57:49 11° NNE
Nadezhda 4 Rocket 3.9 18:54:27 10° S 19:00:43 90° E 19:07:05 10° N
Cosmos 2278 Rocket 4.4 18:57:44 10° NW 19:02:23 27° WSW 19:07:01 10° SSW
Cosmos 1703 4.4 18:59:28 10° SSW 19:03:10 43° WNW 19:06:55 10° N
Cosmos 1455 2.6 19:02:09 10° NNW 19:05:54 62° W 19:09:40 10° S
SL-19 R/B 4.4 19:07:26 10° SSE 19:13:20 80° WSW 19:18:59 10° NNW
Lacrosse 4 Rocket 2.4 19:09:40 10° NNW 19:12:10 35° NNW 19:12:10 35° NNW
Cosmos 773 Rocket 3.9 19:13:01 10° SSW 19:18:11 88° WNW 19:19:20 56° NNE
Cosmos 1092 Rocket 4.0 19:14:43 10° S 19:21:04 88° W 19:27:28 10° N
USA 215 3.6 19:21:36 24° SSE 19:25:46 64° SW 19:32:17 10° NW
Sich 1 4.3 19:22:24 10° SSW 19:26:37 42° WNW 19:29:42 17° NNW
Cosmos 2237 Rocket 4.2 19:23:57 10° WSW 19:28:22 23° NW 19:32:48 10° N
ATLAS 3B R/B 4.5 19:25:55 10° NNW 19:29:53 16° NNE 19:29:53 16° NNE
Cosmos 2369 Rocket 3.6 19:26:46 10° NNW 19:29:27 26° N 19:29:27 26° N
Cosmos 1461 4.3 19:29:49 10° WSW 19:33:33 32° NW 19:33:36 32° NW
Cosmos 1633 Rocket 4.3 19:29:57 10° SSW 19:34:06 39° WNW 19:36:08 25° NNW
SL-16 R/B 3.3 19:29:31 10° SW 19:34:51 42° WNW 19:37:58 23° N
Cosmos 2195 Rocket 4.3 19:40:11 10° S 19:46:13 85° WSW 19:46:13 85° WSW
Lacrosse 5 4.1 19:48:27 10° NNW 19:50:06 16° NNW 19:50:06 16° NNW
CZ-3A R/B 3.9 19:55:39 10° WNW 19:59:58 42° SW 20:01:31 35° S
Resurs 01 Rocket 3.6 20:03:49 26° WSW 20:04:17 27° W 20:08:05 10° NW
CZ-4C R/B 4.2 19:59:49 10° NNW 20:02:59 23° N 20:02:59 23° N
USA 229 DEB 4.0 20:05:23 10° SW 20:12:09 60° NW 20:12:13 60° NW
USA 229 4.0 20:05:29 10° SW 20:12:15 60° NW 20:12:16 60° NW
ATLAS 5 CENTAUR R/B 4.4 20:22:06 10° NNW 20:23:24 17° NNW 20:23:24 17° NNW
